Voltar ao catálogo

STARLINK-37618

AtivoComunicaçõesSSO
NORAD 69228·PAYLOAD·🇺🇸 United States

Lançado May 26, 2026 de Vandenberg Space Force Base

Loading…

Próximas Passagens (próximas 24 horas)

TLE

AtualizadoSource: CelesTrak SupGP

Época: Sep 15, 2026, 04:32 UTC

1 69228C 26115T   26258.18937500 -.00061125  00000+0 -18978-2 0  2587
2 69228  97.2834 274.4032 0001537  90.8754 117.8766 15.33464769    18

Acompanhe STARLINK-37618 em tempo real com AllMySat

Download on the App Store